Location: Devore Heights
(34.2372°N, 117.4156°W)
Time: 08:20:34
(UTC+00:00)

Vanguard 1 Rocket - Pass Details

Date: 22 September 2024
Orbit: 650 x 4218 km, 34.3° (Epoch: 09 October)

Event Time Altitude Azimuth Distance (km) Brightness Sun altitude
Rises 18:43:58 0° 280° (W) 8,169 12.0 53.1°
Reaches altitude 10° 18:53:00 10° 264° (W) 7,390 12.0 53.8°
Maximum altitude 19:06:19 17° 233° (SW) 6,678 12.2 54.6°
Drops below altitude 10° 19:18:44 10° 200° (SSW) 6,691 12.4 55.2°
Sets 19:26:29 0° 181° (S) 7,100 12.5 55.5°
